Jackson, MI

10:48 PM EDT on October 18, 2019 (GMT -0400)
Jackson County-Reynolds

Weather History for KJXN - August, 2019

Change the Weather History Date:

Wednesday, August 14, 2019

  Actual Average Record
Temperature  
Mean Temperature 71 °F 70 °F  
Max Temperature 83 °F 81 °F 96 °F (1965)
Min Temperature 59 °F 60 °F 41 °F (1964)
Degree Days  
Heating Degree Days 0 1  
Month to date heating degree days 0 10  
Since 1 June heating degree days 58 76  
Since 1 July heating degree days 0 21  
Cooling Degree Days 6 6  
Month to date cooling degree days 79 84  
Year to date cooling degree days 484 449  
Since 1 June cooling degree days 474 412  
Growing Degree Days 20 (Base 50)    
Moisture  
Dew Point 57 °F    
Average Humidity 67    
Maximum Humidity 93    
Minimum Humidity 40    
Precipitation  
Precipitation 0.00 in 0.12 in 1.26 in (2015)
Month to date precipitation 0.22 1.61  
Year to date precipitation 20.41 19.06  
Sea Level Pressure  
Sea Level Pressure 29.94 in    
Wind  
Wind Speed 6 mph (NE)    
Max Wind Speed 13 mph    
Max Gust Speed 17 mph    
Visibility 10 miles    
Events      
T = Trace of Precipitation, MM = Missing Value Source: NWS Daily Summary

Daily Weather History Graph

Daily Weather History Graph

Search for Another Location

Airport or City:

Astronomy

Aug. 14, 2019 Rise Set
Actual Time 6:43 AM EDT 8:40 PM EDT
Civil Twilight 6:13 AM EDT 9:10 PM EDT
Nautical Twilight 5:36 AM EDT 9:47 PM EDT
Astronomical Twilight 4:56 AM EDT 10:27 PM EDT
Moon 8:35 PM EDT (8/14) 5:38 AM EDT (8/14)
Length of Visible Light 14h 57m
Length of Day
13h 56m
Waxing Gibbous, 99% of the Moon is Illuminated
Aug 14
Waxing Gibbous
Aug 15
Full
Aug 23
Last Quarter
Aug 30
New
Sep 5
First Quarter

Hourly Weather History & Observations

Time (EDT) Temp. Heat Index Dew Point Humidity Pressure Visibility Wind Dir Wind Speed Gust Speed Precip Events Conditions
12:56 AM 66.0 °F - 54.0 °F 65% 29.91 in 10.0 mi NE 3.5 mph - N/A   Partly Cloudy
1:56 AM 64.0 °F - 57.0 °F 78% 29.91 in 10.0 mi NNE 3.5 mph - N/A   Clear
2:56 AM 63.0 °F - 57.0 °F 81% 29.91 in 10.0 mi NNE 3.5 mph - N/A   Clear
3:56 AM 62.1 °F - 57.0 °F 84% 29.91 in 10.0 mi Calm Calm - N/A   Mostly Cloudy
4:56 AM 59.0 °F - 57.0 °F 93% 29.92 in 10.0 mi Calm Calm - N/A   Partly Cloudy
5:56 AM 60.1 °F - 57.9 °F 93% 29.92 in 10.0 mi Calm Calm - N/A   Overcast
6:56 AM 63.0 °F - 57.9 °F 84% 29.93 in 10.0 mi NE 4.6 mph - N/A   Overcast
7:56 AM 64.9 °F - 57.9 °F 78% 29.94 in 10.0 mi NE 3.5 mph - N/A   Overcast
8:56 AM 66.9 °F - 59.0 °F 76% 29.96 in 10.0 mi NNE 4.6 mph - N/A   Overcast
9:56 AM 69.1 °F - 59.0 °F 70% 29.96 in 10.0 mi NNE 6.9 mph - N/A   Overcast
10:56 AM 73.9 °F - 57.0 °F 55% 29.96 in 10.0 mi NE 6.9 mph - N/A   Clear
11:56 AM 77.0 °F - 57.0 °F 50% 29.96 in 10.0 mi NNE 6.9 mph - N/A   Mostly Cloudy
12:56 PM 79.0 °F - 55.9 °F 45% 29.95 in 10.0 mi NNE 6.9 mph - N/A   Mostly Cloudy
1:56 PM 82.0 °F 81.7 °F 57.0 °F 42% 29.94 in 10.0 mi Variable 3.5 mph - N/A   Partly Cloudy
2:56 PM 81.0 °F 80.8 °F 55.9 °F 42% 29.94 in 10.0 mi NE 8.1 mph - N/A   Mostly Cloudy
3:56 PM 82.0 °F 81.6 °F 55.9 °F 41% 29.93 in 10.0 mi ENE 6.9 mph - N/A   Overcast
4:56 PM 79.0 °F - 57.0 °F 47% 29.93 in 10.0 mi NE 6.9 mph - N/A   Mostly Cloudy
5:56 PM 81.0 °F 80.8 °F 55.9 °F 42% 29.92 in 10.0 mi NE 9.2 mph - N/A   Clear
6:56 PM 80.1 °F 80.2 °F 55.9 °F 43% 29.92 in 10.0 mi NE 10.4 mph - N/A   Clear
7:56 PM 75.9 °F - 57.9 °F 54% 29.92 in 10.0 mi NNE 11.5 mph - N/A   Partly Cloudy
8:56 PM 72.0 °F - 57.9 °F 61% 29.94 in 10.0 mi NE 8.1 mph - N/A   Mostly Cloudy
9:56 PM 71.1 °F - 55.9 °F 59% 29.96 in 10.0 mi ENE 8.1 mph - N/A   Mostly Cloudy
10:56 PM 66.9 °F - 55.9 °F 68% 29.97 in 10.0 mi NNE 6.9 mph - N/A   Clear
11:56 PM 66.0 °F - 55.9 °F 70% 29.97 in 10.0 mi NE 4.6 mph - N/A   Scattered Clouds